DMC3-FM3 (40717 NORAD) Tracking and Keplerian Element Data

This shows tracking and keplerian element data for the satellite.

Feedback or suggestion? Click here.




ElementValue
Catalog40717
NameDMC3-FM3
Epoch Orbit51599
Epoch Day35.21351724
Epoch Year2025
RAAN275.6386
Inclination97.7294
Eccentricity0.0007438
Argument of Perigee252.1703
Mean Anonmoly107.8701
Mean Motion14.84611377
Decay Rate1.774E-05
L11 40717U 15032C 25035.21351724 .00001774 00000+0 21601-3 0 9991
L22 40717 97.7294 275.6386 0007438 252.1703 107.8701 14.84611377515993



Live tracking and technical data element details for DMC3-FM3 (NORAD 40717). DMC3-FM3 can be tracked NOW for your location showing map with azimuth and elevation plus other details from your city location.







IsCatalogInMostPopularTable: catalog: 40717, numindb: 519
Update: records affected: 1



GetName: 40717 DMC3-FM3

Hit Count: updated at: Sat, 24 May 2025 15:46:03 GMT